Location: Wald
(31.7579°N, 86.6655°W)
Time: 12:30:04
(UTC+00:00)

SL-16 R/B - Pass Details

Date: 14 July 2020
Orbit: 839 x 850 km, 71.0° (Epoch: 08 August)

Event Time Altitude Azimuth Distance (km) Brightness Sun altitude
Exits shadow 02:09:55 20° 108° (ESE) 1,874 3.4 -14.6°
Maximum altitude 02:10:28 20° 100° (E) 1,861 3.5 -14.7°
Drops below altitude 10° 02:14:27 10° 55° (NE) 2,469 4.5 -15.3°
Sets 02:17:31 0° 39° (NE) 3,410 5.4 -15.9°
